Погода Александровское

Погода Александровское : погода сейчас, прогноз погоды и архив. Всё, что Вы хотите узнать о погоде Александровское!

Хотите узнать прогноз погоды Александровское? Тогда Вам сюда: Погода Александровское

Поиск расширенной информации на нашем сайте:

Другие новости

Новости СМИ2

Главная страница сайта

Новости сайта

02.10.2013

Напоминаем, что на нашем новом сайте вы можете получить высокодетализированные прогнозы погоды по пунктам России, СНГ и мира (включающие важные для авиации метеовеличины, такие как направление и скорость ветра, видимость, явления погоды, количество и форма облачности, нижняя и верхняя граница облачности), а также ознакомиться с разнообразными материалами по авиационной метеорологии и подборкой полезных ссылок на эту тему.

Сайт Метеоцентр.Азия посвящён разработке технологий оптимизации авиаметеорологического обслуживания, включая проектирование и перспективное создание нескольких автоматизированных авиаметеорологических систем:
- система выпуска высокодетальных прогностических карт явлений погоды для нижнего воздушного пространства по России и ближнему зарубежью;
- система верификации прогнозов TAF (выпускаемых синоптиками официальных АМСГ РФ и ближнего зарубежья) и AUTOTAF (выпускаемых сайтом Метеоцентр.Азия) - выявление ошибок, онлайн-сопоставление с фактической погодой METAR, автоматическое внесение коррективов в прогнозы при резком отклонении фактической погоды от прогноза, подсчёт оправдываемости прогнозов по элементам и в целом;
- система обработки, анализа и отображения авиаметеорологической информации для применения провайдерами метеорологической информации.

Рекомендуем: Пансионаты для отдыха с детьми родители с детьми.

Погода Александровское - сегодня

Время (UTC), дата Ветер
(°,м/с) 
Видим.   Явления Облачность Т
(°С)
Тd
(°С)
f(%) Тe
(°С)
Pmin
(гПа)
dP
(гПа)
Po
(мм)
O2
(г/м3)
Тmin Tmax R s Состояние
почвы
03 26.05.17 280 (З) 4-10{12}  20000 м  {дождь}  8/8 1000 м 
[Sc]
+4 -1.2 69 +2  1016.5  758  301           
06 26.05.17 300 (СЗ) 4{13}  20000 м  в посл. час морось{снег}  8/8 1000 м кучево-дожд. 
[Cb cap]
+6.9 -1.4 55 +6  1019  2.6  760  299           
09 26.05.17 270 (З) 4{11}  20000 м    8/8 1000 м кучево-дожд. 
[Cb cap]
+9.1 -6.2 33 +8  1020.3  1.3  761  297           
12 26.05.17 290 (З) 20000 м    6/4 1000 м верхняя 
[Sc|Ci fib]
+9.7 -5.5 34 +9  1021.4  1.1  762  297    +10.2  0.0     
15 26.05.17 130 (ЮВ) 20000 м    10/3 600 м верхняя 
[Sc|Ci sp]
+7.3 -1.9 52 +8  1021.1  -0.4  761  299           
18 26.05.17 160 (Ю) 50000 м    10/4 300 м кучево-дожд., верхняя 
[Cb cap|Ci sp]
+7.4 -3.1 47 +7  1020.3  -0.7  761  299           
21 26.05.17 180 (Ю) 20000 м    10/0 средняя 
[As trans]
+6.9 -1.4 55 +6  1018.6  -1.7  759  299           
00 27.05.17 150 (ЮВ) 10 км  слаб. ливневой дождь  10/10 300 м кучево-дожд. 
[Cb cap]
+5.4 +2.5 82 +3  1015.7  -2.9  757  299  +5.4      мокрая 
06 27.05.17 170 (Ю) 20000 м  {ливн. осадки}  10/5 1500 м средняя 
[Sc|Ac As]
+12 +7.5 74 +11  1010.3  -2.8  753  290           
09 27.05.17 200 (Ю) 5{12}  20000 м    9/0 средняя, верхняя 
[Ac trans|Ci fib]
+18.9 +8.2 50 +19  1008.9  -1.3  752  282           
12 27.05.17 180 (Ю) 2{14}  20000 м  гроза без осадков  10/5 600 м кучево-дожд., средняя, верхняя 
[Cb cap|Ac trans|Ci fib]
+22.7 +7.7 38 +23  1007  -1.8  751  278    +23.5     
21 27.05.17 150 (ЮВ) 20000 м    6/5 1000 м кучево-дожд., верхняя 
[Cb cap|Ci fib]
+12.2 +8.6 79 +13  1007.9  -1.2  752  288           
00 28.05.17 180 (Ю) 20000 м    9/3 1000 м средняя 
[Sc|Ac lent]
+12.9 +4.9 58 +13  1007.4  -0.5  751  288  +11.8    13    мокрая 
03 28.05.17 120 (ЮВ) 20000 м    10/0 средняя, верхняя 
[Ac lent|Ci fib]
+19.3 +5 39 +20  1006.1  -1.1  750  282           
12 28.05.17 140 (ЮВ) 4{11}  20000 м    10/6 1000 м кучево-дожд., средняя 
[Cb cap|Ac lent]
+20.6 +3.1 31 +21  1001  -0.7  747  279    +24.2       
15 28.05.17 110 (В) 20000 м  в посл. час дождь  10/8 600 м верхняя 
[Sc|Ci sp]
+17.3 +5.7 46 +18  999  -2.1  745  281           
18 28.05.17 100 (В) 50000 м  {дождь}  10/10 600 м кучево-дожд. 
[Cb cap]
+14.5 +7.1 61 +15  996.4  -2.6  743  283           
21 28.05.17 110 (В) 20000 м  {ливн. осадки}  10/3 600 м кучево-дожд., средняя, верхняя 
[Cb cap|Ac trans|Ci fib]
+12.4 +10 85 +13  994.3  -2.2  741  284           
00 29.05.17 140 (ЮВ) 20000 м  {ливн. осадки}  6/3 600 м кучево-дожд., верхняя 
[Cb cap|Ci fib]
+14.1 +9.7 75 +15  993.2  -1  741  282  +11.5    0.6    мокрая 
03 29.05.17 170 (Ю) 20000 м    8/3 1000 м кучево-дожд., верхняя 
[Cb cap|Ci fib]
+18.2 +9.8 58 +20  993.6  0.5  741  278           
06 29.05.17 240 (ЮЗ) 20000 м    9/8 1000 м верхняя 
[Cu Sc|Ci fib]
+19.4 +10.7 57 +22  995.7  2.1  743  277           
12 29.05.17 260 (З) 20000 м    10/10 700 м 
[Sc]
+11.9 +6.4 69 +12  1002.4  2.3  747  288    +20.5       
15 29.05.17 310 (СЗ) 20000 м    10/10 630 м 
[Sc]
+8.3 +4.6 77 +8  1003.6  1.2  748  292           
18 29.05.17 310 (СЗ) 50000 м    10/10 660 м 
[Sc]
+7.5 +4.3 80 +7  1002.5  -1.2  747  292           
00 30.05.17 360 (С) 10 км  слаб. ливневой дождь  10/10 210 м кучево-дожд. 
[Cb cap]
+6.7 +5.8 94 +6  999.7  -1.7  745  292  +6.6      мокрая 
Время (UTC), дата Ветер
(°,м/с) 
Видим.   Явления Облачность Т
(°С)
Тd
(°С)
f(%) Тe
(°С)
Pmin
(гПа)
dP
(гПа)
Po
(мм)
O2
(г/м3)
Тmin Tmax R s Состояние
почвы

Для получения пояснительной информации подведите курсор к названию столбца.

ПОГОДА Александровское - архив

Всё, что Вы хотите узнать о погоде Александровское - удобно и подробно!

Выберите нужную дату (начиная с 1 января 2015* года) и нажмите кнопку "Найти".
Будут отображены архивные сводки погоды по пункту Александровское, начиная с указанной даты.


Отображать данные в формате CSV (для использования в таблицах Excel)


Внимание! Наш архив погоды предназначен исключительно для личного некоммерческого использования в познавательных целях. Если Вам необходимы официальные справки о состоянии погоды (для производственных, юридических, коммерческих и т.п. целей), обращайтесь в органы Росгидромета.

*Примечание: данная дата относится к архиву по метеостанциям СССР (Россия, СНГ, Балтия).
Архив по метеостанциям Зарубежной Европы и Азии (кроме Китая) хранится 10 дней, по другим регионам земного шара (Китай, Африка, Америка, Австралия, Океания) - 1 день.

Александровское - район местоположения метеостанции


Название, широта, долгота, высота метеостанции:
Александровское 60.4°ш. 77.9°д. 48 м над ур. моря [Российская Федерация]

Дополнительная информация

В oтличие oт бoльшинства пoгoдных сайтoв мы публикуем пoдрoбную метеoинфoрмацию в детальнoм прoфессиoнальнoм фoрмате.

Характеристики температуры и влажнoсти вoздуха измеряются на высoте 2 м в тени вдали oт зданий и деревьев.
Скoрoсть ветра измеряется на высoте 10 м (на урoвне рoста челoвека скoрoсть ветра ниже в 1.5-2 раза). Если метеoстанция нахoдится в гoрoде или в лесу, тo скoрoсть ветра занижена на 2-4 м/с пo сравнению с oткрытым местoм. Скoрoсть ветра над акватoриями крупных рек и oзёр, а также на вершинах хoлмoв на 2-5 м/с выше, чем в oбычных услoвиях.
Атмoсфернoе давление в разных тoчках местнoсти мoжет значительнo oтличаться oт давления на метеoстанции, в зависимoсти oт услoвий рельефа (при пoдъёме на 10 м давление пoнижается примернo на 1 мм рт.ст.).